リニア彗星

295P/LINEAR (2014)

English version
Home page
Updated on December 28, 2022

---------------------------------------------------------------------

・ プロフィール

符号 295P/2013 Y1
検出日 2013年12月25日
検出光度 20.6等
検出者 J. V. Scotti (Spacewatch)

・ 写真集

・ 軌道要素

Epoch 2014 May 23.0 TT = JDT 2456800.5
T 2014 May 14.71577 TT                                  MPCW
q   2.0485992            (2000.0)            P               Q
n   0.07985016     Peri.   73.40494     +0.16375156     -0.98533090
a   5.3409542      Node     7.66816     +0.71065726     +0.08404378
e   0.6164357      Incl.   21.10454     +0.68421612     +0.14852493
P  12.3
From 71 observations 2002 Jan. 6-2015 Feb. 18, mean residual 0".5.

・ 光度変化

        m1 = 14.0 + 5 logΔ + 10.0 log r

---------------------------------------------------------------------

軌道要素はM.P.E.C. 2015-G03に掲載されたものです。
光度グラフはComet for Windowsで作成したものです。

---------------------------------------------------------------------

Copyright(C) Seiichi Yoshida (comet@aerith.net). All rights reserved.